< < Back
Terminal Aerodrome Forecast


Current Version              Previous Versions:   1  2  3  4  5  6  7  8  9  

Terminal Aerodrome Forecast

888
FTUS42 KCAE 261005 AAC
TAFCAE
TAF AMD
KCAE 261005Z 2610/2706 10004KT 4SM BR SCT003 OVC012
      TEMPO 2610/2613 OVC003
     FM261500 VRB04KT P6SM SCT025
     FM261800 12005KT P6SM BKN040=

Latest METAR

896
SAUS80 KWBC 261000
MTRCAE
METAR KCAE 260956Z 10004KT 4SM BR OVC004 23/22 A3007 RMK AO2 SLP179
T02330217


USA.gov is the U.S. government's official web portal to all federal, state and local government web resources and services.